User: anonymous   Login
Location: Lower Kingswood
(51.2667°N, 0.2167°W)
Time: 02:28:45
(UTC+00:00)
Language:

Cosmos 2333 Rocket - Orbit

View from above orbital plane
View from above orbital plane
View from above satellite
View from above satellite

Ground track
Ground track

The orbit data is extracted from the following two-line orbital elements,

1 24298U 96051B   24062.07777262 -.00000180  00000-0 -71111-4 0  9994
2 24298  70.8138 294.9437 0014788 150.4073 209.7887 14.12499062417494
Epoch (UTC): 02 March 2024 01:51:59
Eccentricity: 0.0014788
inclination: 70.8138°
perigee height: 840 km
apogee height: 861 km
right ascension of ascending node: 294.9437°
argument of perigee: 150.4073°
revolutions per day: 14.12499062
mean anomaly at epoch: 209.7887°
orbit number at epoch: 41749

The dashed part of the orbit path shows where the satellite is in the earth's shadow,  

DLR